307  
ASUS44 KFWD 211415  
RWRFWD  
NORTH TEXAS HOURLY WEATHER ROUNDUP  
NATIONAL WEATHER SERVICE FORT WORTH TX  
900 AM CDT FRI JUL 21 2017  
 
NOTE: "FAIR" INDICATES FEW OR NO CLOUDS BELOW 12,000 FEET WITH NO  
SIGNIFICANT WEATHER AND/OR S TO VISIBILITY
.  
 
TXZ118-119-211500-  
DALLAS/FORT WORTH METROPLEX  
 
CITY SKY/WX TMP DP RH WIND PRES REMARKS
 
DFW AIRPORT MOSUNNY 86 73 65 S9 30.02R HX 93  
DALLAS LOVE MOSUNNY 85 72 65 S8 30.03S HX 91  
FTW MEACHAM SUNNY 87 73 62 S7 30.02S HX 94  
DAL-EXECUTIVE SUNNY 84 74 71 VRB6 30.03S HX 91  
FTW-ALLIANCE SUNNY 86 72 62 S6 30.03R HX 92  
FTW-NAS-JRB MOSUNNY 87 71 58 S10 30.03R HX 93  
FTW-SPINKS SUNNY 84 72 65 S6 30.05R  
ARLINGTON SUNNY 84 74 71 S9 30.03S HX 91  
GRAND PRAIRIE SUNNY 84 72 65 S9 30.05R  
ADDISON SUNNY 84 72 65 S7 30.04S  
MESQUITE SUNNY 82 75 78 S3 30.04S  
LANCASTER SUNNY 82 74 76 S5 30.05S  

 
 
TXZ091>094-102>105-117-120-121-131>134-211500-  
NORTH CENTRAL TEXAS  
 
CITY SKY/WX TMP DP RH WIND PRES REMARKS
 
SHRMAN/DENISON SUNNY 85 73 66 S12 30.04F HX 92  
GAINESVILLE SUNNY 84 72 68 S9 30.05S  
BOWIE SUNNY 84 72 66 S8 30.03F  
BRIDGEPORT SUNNY 85 70 61 S5 30.05S  
DECATUR SUNNY 84 71 65 S5 30.05R  
DENTON SUNNY 86 74 67 S8 30.02S HX 94  
MCKINNEY SUNNY 84 76 76 S9 30.04R HX 93  
BONHAM SUNNY 82 73 74 S8 30.04S  
GREENVILLE SUNNY 88 73 62 S6 30.06S HX 96  
ROCKWALL SUNNY 83 74 75 S12G17 30.05S HX 90  
TERRELL SUNNY 83 74 74 S7 30.05R  
WAXAHACHIE SUNNY 82 74 75 S7 30.05S  
CLEBURNE PTSUNNY 82 77 83 S7 30.06S HX 91  
GRANBURY SUNNY 86 70 58 S6 30.05S HX 90  

 
 
TXZ083>090-098>101-113>116-127>130-139>142-154-155-211500-  
WESTERN NORTH TEXAS  
 
CITY SKY/WX TMP DP RH WIND PRES REMARKS
 
WICHITA FALLS MOSUNNY 85 68 56 S16 29.99S  
WF-KICKAPOO MOSUNNY 84 69 60 S9G16 30.03S  
VERNON SUNNY 84 61 45 S10 30.01F  
ABILENE SUNNY 82 69 64 SW10 30.07R  
ABILENE-DYESS SUNNY 84 69 59 S12 30.05S  
GRAHAM SUNNY 84 69 62 S6 30.02S  
BRECKENRIDGE SUNNY 85 68 55 S10 30.04S  
CISCO SUNNY 81 70 69 S12 30.07S  
EASTLAND SUNNY 82 70 66 S13 30.06S  
RANGER SUNNY 80 69 69 S12 30.07R  
MINERAL WELLS SUNNY 82 71 69 S7 30.03R  
STEPHENVILLE SUNNY 81 70 70 S5 30.09S  
COMANCHE SUNNY 83 70 64 S9 30.07S  
BROWNWOOD MOSUNNY 82 70 65 S7 30.07S  
COLEMAN MOSUNNY 80 68 65 S6 30.08S  

 
 
TXZ143>147-156>162-174-175-211500-  
CENTRAL TEXAS  
 
CITY SKY/WX TMP DP RH WIND PRES REMARKS
 
WACO SUNNY 85 73 67 S8 30.04R HX 91  
WACO-TSTC SUNNY 82 72 69 SE6 30.05R  
WACO-MCGREGOR SUNNY 86 73 65 S7 30.05R HX 93  
HILLSBORO SUNNY 84 74 72 S9 30.05R HX 90  
CORSICANA SUNNY 83 75 77 S8 30.06R HX 90  
MEXIA SUNNY 82 74 76 S9 30.05S  
HEARNE MOSUNNY 82 78 89 SE5 30.07R HX 91  
CAMERON SUNNY 83 75 78 S6 30.05S HX 90  
TEMPLE SUNNY 84 73 69 S8 30.06R HX 90  
KILLEEN SUNNY 83 69 63 S6 30.05R  
KILLEEN-SKYLRK SUNNY 83 71 67 S9 30.06R  
FORT HOOD SUNNY 82 69 64 S7 30.03R  
HAMILTON PTSUNNY 83 69 62 SW9 30.08R  
LAMPASAS SUNNY 82 71 70 SW6 30.06S  

 
 
TXZ095>097-106>112-122>126-135>138-148>153-164>167-211500-  
EAST TEXAS  
 
CITY SKY/WX TMP DP RH WIND PRES REMARKS
 
PARIS N/A 84 76 76 SW9 N/A HX 93  
SULPHUR SPRNGS SUNNY 84 74 72 SW6 30.07S HX 92  
MOUNT PLEASANT SUNNY 84 73 69 SW5 30.07S HX 91  
GILMER SUNNY 83 74 73 SW5 30.06S  
MINEOLA SUNNY 84 73 70 SW6 30.06S HX 91  
TYLER SUNNY 85 75 72 SW7 30.06R HX 93  
LONGVIEW SUNNY 85 76 74 W6 30.05S HX 94  
MARSHALL N/A 85 76 73 W3 30.08S HX 94  
ATHENS SUNNY 81 72 74 CALM 30.05S  
PALESTINE SUNNY 82 76 82 SW5 30.08R HX 90  
JACKSONVILLE SUNNY 81 75 81 SW5 30.09S  
HENDERSON SUNNY 83 74 76 SW5 30.08S  
CENTER HAZE 86 78 77 SW3 30.07S VSB 1/2 HX 98  
NACOGDOCHES SUNNY 81 75 83 W3 30.05S  
LUFKIN SUNNY 82 76 81 SW5 30.06S  

 
 
SUPPLEMENTAL OBSERVATIONS (NWS FORT WORTH AREA)  
 
CITY SKY/WX TMP DP RH WIND PRES REMARKS
 
DENISON DAM N/A 86 72 62 S3 N/A HX 92  
CADDO GRASSLND N/A 84 73 70 S7 N/A HX 91  
PAT MAYSE LAKE N/A 82 77 83 S7 N/A HX 91  
GREENVILLE N/A 86 73 66 S6 N/A HX 93  
CEDAR HILL N/A 86 72 62 S6 N/A HX 92  
LBJ GRASSLAND N/A 84 72 65 S7 N/A  
POSSUM KINGDOM N/A 88 70 55 S9 N/A HX 92  
GRANBURY N/A 88 72 58 S8 N/A HX 94  
COMANCHE N/A 84 68 58 S9 N/A  
MCGREGOR N/A 84 70 61 S6 N/A  
TEMPLE N/A 84 72 65 S6 N/A  
LAKE LIMESTONE N/A 82 73 74 SW8 N/A  
ATHENS N/A 84 73 70 SW5 N/A HX 91  

 
 
SUPPLEMENTAL OBSERVATIONS (NWS NORMAN AREA)  
 
CITY SKY/WX TMP DP RH WIND PRES REMARKS
 
GOODLETT N/A 84 61 45 S7 30.02S  
ODELL N/A 84 67 56 S7 30.03R  
CROWELL N/A 88 63 43 SW9 30.03S  
KNOX CITY N/A 86 60 41 S9 30.04S  
SEYMOUR N/A 87 63 44 S12 30.03S  
MILLERS CREEK N/A 84 66 54 S10 N/A  

 
 
SUPPLEMENTAL OBSERVATIONS (NWS SAN ANGELO AREA)  
 
CITY SKY/WX TMP DP RH WIND PRES REMARKS
 
WEINERT N/A 85 65 49 SW13 30.04S  
HASKELL N/A 84 61 46 S12 30.05R  
THROCKMORTON N/A 83 69 62 S7 30.05S  
STAMFORD N/A 86 67 53 SW12 30.06S  
CLYDE N/A 83 69 63 S12 30.10S  
HAMBY N/A 84 66 54 SW18 N/A  
IVIE RESERVOIR N/A 84 68 58 S7 N/A  
COLORADO BEND N/A 84 66 54 S7 N/A  

 
 
SUPPLEMENTAL OBSERVATIONS (NWS SHREVEPORT AREA)  
 
CITY SKY/WX TMP DP RH WIND PRES REMARKS
 
CLARKSVILLE N/A 88 75 66 SW2 N/A HX 97  
TEXARKANA N/A 86 79 79 W3 N/A HX 99  
LINDEN N/A 86 73 66 W3 N/A HX 93  
CADDO LAKE N/A 88 77 70 W3 N/A HX 100  
GILMER N/A 86 73 66 SW3 N/A HX 93  
HENDERSON N/A 84 79 84 SW5 N/A HX 96  
LUFKIN N/A 84 77 79 MISG N/A HX 94  
N SABINE NF N/A 82 77 83 MISG N/A HX 91  
S SABINE NF N/A 88 77 70 SW2 N/A HX 100  

 
 
SUPPLEMENTAL OBSERVATIONS ARE A COLLECTION OF AUTOMATED INSTRUMENTS  
THAT ARE MAINTAINED BY A VARIETY OF FEDERAL AND STATE AGENCIES.  
CERTAIN ELEMENTS...SUCH AS HUMIDITY VALUES AND SUSTAINED WIND  
SPEEDS...MAY BE APPROXIMATED.  
 
 
 
CLICK HERE TO GO TO PREVIOUS BULLETINS.

The Nexlab TX Page Main Text Page